[[{"header":{"parameterUnit":"m.s-1","parameterCategory":2,"la1":30.2991,"la2":30.254,"lo1":-89.0895,"lo2":-89.0444,"dy":0.0017,"dx":0.0017,"nx":28,"ny":28,"refTime":"2024-05-20T03:00:00:Z","depth":"0","parameterNumber":2,"parameterNumberName":"U-component_of_CURRENTS"},"data":[0,0,0,0,0,0,0,0,0,0,0,0,0,0,0,0,0,0,0,0,0,0,0,0,0,0,0,0,0,0,0,0,0,0,0,0,0,0,0,0,0,0,0,0,0,0,0,0,0,0,0,0,0,0,0,0,0,0,0.1536,0.1536,0,0.1485,0.1485,0.1485,0.144,0.1439,0.1438,0.1438,0.1483,0.1485,0.1486,0,0,0,0,0,0,0,0,0,0,0,0,0,0.1564,0.1564,0.1536,0.1536,0.1535,0.1485,0.1485,0.1484,0.144,0.1439,0.1438,0.1437,0.1482,0.1484,0.1487,0,0,0,0,0,0,0,0,0,0,0,0,0,0.1539,0.1564,0.1537,0.1505,0.1501,0.1485,0.1485,0.1484,0.144,0.1439,0.1438,0.1437,0.1481,0.1484,0.1487,0.1527,0,0,0.1496,0.1497,0,0,0,0,0,0,0,0,0.154,0.1538,0.151,0.1507,0.1503,0.1466,0.1511,0.1502,0.144,0.1466,0.1438,0.1436,0.1485,0.1488,0.1483,0.1529,0.1531,0.1496,0.1498,0.1499,0.15,0,0,0,0,0,0,0,0.1542,0.154,0.1519,0.1509,0.1505,0.1482,0.1478,0.1509,0.1486,0.1464,0.146,0.145,0.1484,0.148,0.1484,0.1531,0.1496,0.1498,0.15,0.1501,0.1621,0.1622,0,0,0,0,0,0,0.1546,0.1542,0.152,0.1517,0.1516,0.1482,0.1478,0.1481,0.1484,0.1481,0.1451,0.1448,0.1476,0.148,0.1485,0.1585,0.1499,0.1501,0.1503,0.1619,0.1621,0.1622,0,0,0,0,0,0,0.1547,0.1546,0.1522,0.1525,0.152,0.1483,0.1487,0.148,0.1477,0.1473,0.1473,0.1454,0.1475,0.1481,0.1526,0.1585,0.1503,0.1505,0.1617,0.162,0.1622,0.1753,0,0,0,0,0,0,0.1549,0.1547,0.1563,0.1526,0.152,0.1547,0.1487,0.148,0.1471,0.1467,0.1476,0.1478,0.1475,0.1522,0.1529,0.1587,0.1508,0.1616,0.1618,0.1621,0.1746,0.1759,0.177,0,0,0,0,0,0.155,0.1605,0.1565,0.1562,0.1541,0.1549,0.1546,0.1515,0.1473,0.1501,0.149,0.1478,0.1543,0.1526,0.1533,0.1594,0.1614,0.1618,0.1621,0.1741,0.1757,0.177,0,0,0,0,0,0,0.1654,0.1603,0.1559,0.1601,0.1579,0.1541,0.1577,0.1523,0.1532,0.1537,0.1505,0.151,0.1573,0.1557,0.1538,0.1631,0.1574,0.1579,0.1663,0.1677,0.1689,0.1761,0.151,0,0,0,0,0,0.1673,0.1693,0.1633,0.1675,0.1669,0.1613,0.1611,0.1583,0.1574,0.1575,0.1566,0.1568,0.1593,0.1612,0.1635,0.1692,0.1701,0.1729,0.1741,0.1751,0.1812,0.1874,0.1899,0.1633,0.1633,0.1633,0,0,0.1729,0.1705,0.1718,0.1696,0.1683,0.1706,0.1614,0.1638,0.1659,0.1585,0.1639,0.1621,0.1616,0.1682,0.1708,0.1677,0.182,0.1755,0.1765,0.1821,0.188,0.1907,0.193,0.1636,0.1635,0.1635,0,0,0.1858,0.1828,0.1877,0.1862,0.1838,0.1805,0.1808,0.1767,0.1759,0.1789,0.1742,0.177,0.1785,0.1809,0.1817,0.1909,0.1882,0.1886,0.2012,0.207,0.2094,0.2115,0.2118,0.2138,0.1889,0.189,0.189,0,0.1929,0.196,0.1901,0.1939,0.1938,0.1852,0.1897,0.1892,0.1868,0.1868,0.1835,0.1861,0.1866,0.194,0.1978,0.1948,0.1945,0.196,0.2091,0.2112,0.2132,0.213,0.2151,0.1896,0.1896,0.1895,0.1894,0,0.2063,0.2091,0.2136,0.2136,0.2133,0.2175,0.2126,0.2129,0.2086,0.2057,0.2102,0.2098,0.2105,0.2107,0.2087,0.2209,0.2147,0.2102,0.2065,0.2168,0.2156,0.2176,0.1906,0.1904,0.1902,0.19,0,0,0.2213,0.2223,0.2237,0.223,0.2231,0.2223,0.2286,0.2283,0.228,0.2292,0.2311,0.2383,0.2335,0.2345,0.2302,0.2376,0.2502,0.2314,0.2314,0.2336,0.2594,0.241,0.2412,0.2471,0.2476,0.248,0.2516,0,0.2333,0.2409,0.2392,0.2458,0.2476,0.2421,0.2458,0.2443,0.2418,0.2421,0.2435,0.2444,0.2432,0.2414,0.2504,0.2489,0.2568,0.2496,0.2478,0.2478,0.2319,0.2435,0.2274,0.2281,0.2535,0.2538,0.254,0,0.2457,0.2472,0.2551,0.2536,0.2539,0.2563,0.254,0.2563,0.2565,0.2546,0.2582,0.255,0.2653,0.261,0.2731,0.2674,0.2683,0.2684,0.2683,0.2499,0.2334,0.2227,0.2307,0.2176,0.257,0.2568,0.2565,0,0.2516,0.2577,0.262,0.2625,0.2613,0.2622,0.2609,0.2598,0.2586,0.2614,0.2596,0.2691,0.2688,0.2785,0.2786,0.2767,0.2889,0.2836,0.2688,0.267,0.2531,0.2492,0.251,0.2973,0.2973,0.2973,0.2973,0,0.2623,0.2653,0.2636,0.2647,0.2653,0.2639,0.2639,0.2633,0.263,0.2615,0.265,0.2648,0.274,0.278,0.283,0.2806,0.2919,0.2762,0.2698,0.2559,0.2525,0.2397,0.2365,0.2974,0.2974,0.2973,0.2973,0,0.2677,0.2692,0.2705,0.2688,0.2677,0.2663,0.2622,0.2607,0.2614,0.26,0.261,0.263,0.2671,0.273,0.283,0.279,0.2713,0.2788,0.2584,0.2497,0.2199,0.2179,0.2132,0.2086,0.2642,0.2638,0.2635,0,0.2717,0.2733,0.27,0.2676,0.2664,0.2637,0.2608,0.2598,0.2574,0.2572,0.2559,0.2583,0.2572,0.2612,0.2584,0.2609,0.2572,0.2426,0.2387,0.2204,0.2139,0.2091,0.2057,0.224,0.2234,0.2229,0.2225,0,0.2744,0.2724,0.2703,0.2661,0.2624,0.2579,0.254,0.2519,0.2503,0.2488,0.246,0.2461,0.2433,0.2349,0.2317,0.2313,0.225,0.2313,0.2219,0.1927,0.1794,0.1706,0.2156,0.2179,0.2184,0.2187,0.2189,0.2191,0.2725,0.2703,0.2661,0.2609,0.257,0.2507,0.2449,0.2414,0.2368,0.231,0.236,0.2298,0.2184,0.2102,0.2061,0.1785,0.1914,0.1688,0.1709,0.17,0.1581,0.1893,0.1771,0.1773,0.1775,0.1777,0.1778,0,0.2674,0.2644,0.2604,0.2521,0.2453,0.2454,0.238,0.2306,0.2226,0.2198,0.2166,0.1988,0.1814,0.1684,0.1375,0.1218,0.1215,0.1143,0.1091,0.1116,0.1464,0.1366,0.1034,0.1034,0.1034,0.1034,0.1035,0.1035,0.2638,0.2572,0.2543,0.241,0.2359,0.2248,0.2194,0.2109,0.2056,0.1883,0.1745,0.1716,0.1476,0.1123,0.081,0.0771,0.0725,0.0619,0.0707,0.0956,0.101,0.1062,0.0962,0.0551,0.055,0.0295,0.0292,0.029]},{"header":{"parameterUnit":"m.s-1","parameterCategory":2,"la1":30.2991,"la2":30.254,"lo1":-89.0895,"lo2":-89.0444,"dy":0.0017,"dx":0.0017,"nx":28,"ny":28,"refTime":"2024-05-20T03:00:00:Z","depth":"0","parameterNumber":3,"parameterNumberName":"V-component_of_CURRENTS"},"data":[0,0,0,0,0,0,0,0,0,0,0,0,0,0,0,0,0,0,0,0,0,0,0,0,0,0,0,0,0,0,0,0,0,0,0,0,0,0,0,0,0,0,0,0,0,0,0,0,0,0,0,0,0,0,0,0,0,0,0.0712,0.0713,0,0.0775,0.0775,0.0776,0.08,0.08,0.08,0.08,0.0825,0.0826,0.0827,0,0,0,0,0,0,0,0,0,0,0,0,0,0.0615,0.0617,0.0712,0.0713,0.0713,0.0774,0.0775,0.0776,0.08,0.08,0.08,0.08,0.0825,0.0826,0.0827,0,0,0,0,0,0,0,0,0,0,0,0,0,0.0665,0.0618,0.0712,0.0733,0.0736,0.0774,0.0775,0.0776,0.08,0.08,0.08,0.08,0.0825,0.0826,0.0827,0.084,0,0,0.0831,0.0832,0,0,0,0,0,0,0,0,0.0663,0.0669,0.0729,0.0732,0.0734,0.078,0.0751,0.0796,0.0801,0.0776,0.08,0.08,0.0807,0.081,0.0822,0.0841,0.0842,0.0831,0.0832,0.0833,0.0833,0,0,0,0,0,0,0,0.0659,0.0666,0.0736,0.073,0.0733,0.074,0.0747,0.076,0.0791,0.0778,0.078,0.0787,0.0808,0.0821,0.0823,0.0842,0.0831,0.0832,0.0833,0.0834,0.086,0.086,0,0,0,0,0,0,0.0652,0.0663,0.0734,0.0738,0.0697,0.0742,0.075,0.0765,0.0792,0.0796,0.0787,0.0788,0.0819,0.0821,0.0824,0.0883,0.0833,0.0834,0.0834,0.086,0.086,0.086,0,0,0,0,0,0,0.065,0.0658,0.0732,0.0702,0.0712,0.0744,0.0761,0.0767,0.0785,0.0799,0.0803,0.08,0.0819,0.0822,0.0846,0.0882,0.0834,0.0835,0.086,0.086,0.086,0.0973,0,0,0,0,0,0,0.0647,0.0657,0.0669,0.0702,0.0713,0.0776,0.0762,0.0768,0.0789,0.0791,0.0811,0.0813,0.0819,0.0844,0.0847,0.0883,0.0836,0.086,0.086,0.086,0.0969,0.0976,0.0983,0,0,0,0,0,0.0644,0.0678,0.067,0.0678,0.0728,0.0777,0.0785,0.0805,0.079,0.0816,0.0819,0.0813,0.0845,0.0846,0.0849,0.0886,0.086,0.086,0.086,0.0966,0.0975,0.0983,0,0,0,0,0,0,0.0654,0.0684,0.0676,0.0719,0.0747,0.0782,0.0811,0.0808,0.083,0.0832,0.0826,0.083,0.0862,0.0845,0.0846,0.0885,0.0846,0.0847,0.0925,0.0933,0.094,0.0995,0.0837,0,0,0,0,0,0.0655,0.0687,0.071,0.0747,0.0761,0.0778,0.0798,0.0813,0.0835,0.0845,0.0856,0.0855,0.0863,0.0876,0.0882,0.0912,0.0893,0.0928,0.0935,0.0942,0.0984,0.0982,0.0994,0.086,0.086,0.086,0,0,0.067,0.0691,0.0709,0.075,0.0772,0.0823,0.0791,0.0838,0.0885,0.0843,0.0907,0.0886,0.0873,0.0912,0.0923,0.0907,0.0958,0.0941,0.0948,0.0987,0.0983,0.0997,0.1009,0.086,0.086,0.086,0,0,0.0721,0.0733,0.0771,0.0805,0.0843,0.0863,0.0874,0.091,0.0931,0.0979,0.0951,0.0959,0.0977,0.0984,0.0984,0.1028,0.0992,0.1006,0.1102,0.1099,0.1111,0.1122,0.1077,0.1083,0.1014,0.1014,0.1014,0,0.0734,0.0784,0.0793,0.0846,0.0878,0.0882,0.0935,0.0973,0.1014,0.1026,0.1016,0.1036,0.1024,0.1064,0.1084,0.1053,0.1025,0.1079,0.1113,0.1124,0.1133,0.1084,0.109,0.102,0.1019,0.1018,0.1018,0,0.0808,0.0857,0.0891,0.0953,0.0992,0.1045,0.1086,0.1123,0.1132,0.1152,0.1191,0.1184,0.1189,0.1179,0.116,0.1209,0.1156,0.1123,0.1106,0.1155,0.1097,0.1101,0.1027,0.1025,0.1024,0.1023,0,0,0.0817,0.0917,0.0928,0.0964,0.1049,0.1081,0.1169,0.1223,0.1253,0.1305,0.1347,0.1375,0.1349,0.1347,0.1308,0.1327,0.1352,0.1269,0.1266,0.1249,0.1318,0.1266,0.1263,0.1327,0.1329,0.1331,0.1239,0,0.0866,0.0963,0.1007,0.1106,0.1157,0.1197,0.1262,0.1316,0.135,0.1398,0.1414,0.1436,0.1418,0.1405,0.1434,0.1381,0.1374,0.1379,0.1254,0.125,0.1219,0.1271,0.1263,0.1181,0.1242,0.1243,0.1243,0,0.0922,0.0974,0.1067,0.1154,0.1175,0.1231,0.13,0.1365,0.1439,0.1458,0.1512,0.1514,0.1571,0.1524,0.1521,0.1524,0.1439,0.1396,0.1389,0.132,0.1208,0.1146,0.1185,0.114,0.1248,0.1248,0.1247,0,0.0907,0.1019,0.108,0.112,0.122,0.125,0.1295,0.1369,0.1412,0.1494,0.1526,0.1587,0.1605,0.1581,0.1529,0.1515,0.1501,0.1444,0.1309,0.13,0.1264,0.125,0.1276,0.1415,0.1415,0.1415,0.1415,0,0.0949,0.1001,0.1068,0.1107,0.1156,0.1228,0.1283,0.1336,0.1413,0.1473,0.1544,0.1605,0.1626,0.1629,0.156,0.1474,0.1512,0.1356,0.1298,0.1293,0.1284,0.1217,0.1211,0.1412,0.1412,0.1413,0.1414,0,0.0948,0.1001,0.1068,0.114,0.1159,0.1191,0.127,0.1312,0.1384,0.1473,0.1505,0.1618,0.1639,0.1622,0.1565,0.1488,0.138,0.1337,0.1319,0.1263,0.1102,0.1102,0.1071,0.1079,0.1187,0.1186,0.1184,0,0.0964,0.0997,0.1065,0.1086,0.1119,0.1169,0.1206,0.1286,0.1341,0.1484,0.1531,0.1595,0.1669,0.1596,0.1481,0.1351,0.1309,0.1206,0.119,0.1129,0.1085,0.1075,0.1085,0.1153,0.1152,0.1151,0.115,0,0.0973,0.0988,0.1027,0.1065,0.11,0.1157,0.122,0.1258,0.1371,0.1454,0.1577,0.1655,0.1624,0.1563,0.1398,0.1292,0.1211,0.1174,0.1136,0.1109,0.1078,0.1044,0.1143,0.114,0.1141,0.1141,0.1142,0.1142,0.0958,0.0972,0.1006,0.104,0.1087,0.115,0.1192,0.1278,0.1373,0.1532,0.1602,0.1749,0.1643,0.1456,0.1322,0.1059,0.1099,0.0977,0.0988,0.0985,0.1006,0.1072,0.0992,0.0992,0.0992,0.0992,0.0993,0,0.0933,0.0949,0.0981,0.1029,0.107,0.111,0.1206,0.1268,0.1381,0.1564,0.1689,0.1737,0.1588,0.1405,0.1054,0.0912,0.0886,0.0848,0.0858,0.0882,0.0951,0.0964,0.0847,0.0847,0.0847,0.0847,0.0847,0.0847,0.0919,0.0926,0.0942,0.0993,0.1036,0.1102,0.1158,0.1275,0.1418,0.162,0.1747,0.1866,0.1682,0.1167,0.0861,0.0809,0.0786,0.0739,0.0752,0.0809,0.0823,0.0836,0.0848,0.0708,0.0708,0.069,0.069,0.069]}],[{"header":{"parameterUnit":"m.s-1","parameterCategory":2,"la1":30.2991,"la2":30.254,"lo1":-89.0895,"lo2":-89.0444,"dy":0.0017,"dx":0.0017,"nx":28,"ny":28,"refTime":"2024-05-20T03:00:00:Z","depth":"2","parameterNumber":2,"parameterNumberName":"U-component_of_CURRENTS"},"data":[0,0,0,0,0,0,0,0,0,0,0,0,0,0,0,0,0,0,0,0,0,0,0,0,0,0,0,0,0,0,0,0,0,0,0,0,0,0,0,0,0,0,0,0,0,0,0,0,0,0,0,0,0,0,0,0,0,0,0.1573,0.1574,0,0.1604,0.1604,0.1605,0.1571,0.157,0.1569,0.1568,0.1653,0.1656,0.1659,0,0,0,0,0,0,0,0,0,0,0,0,0,0.1473,0.1475,0.1573,0.1574,0.1574,0.1604,0.1604,0.1605,0.1571,0.157,0.1568,0.1567,0.1652,0.1656,0.166,0,0,0,0,0,0,0,0,0,0,0,0,0,0.1509,0.1476,0.1573,0.1563,0.1563,0.1604,0.1605,0.1605,0.1571,0.157,0.1568,0.1567,0.1651,0.1655,0.166,0.172,0,0,0.1675,0.1677,0,0,0,0,0,0,0,0,0.1507,0.1512,0.1564,0.1564,0.1564,0.1585,0.1601,0.1647,0.1572,0.1565,0.1568,0.1566,0.1639,0.1644,0.1648,0.1724,0.1728,0.1675,0.1678,0.168,0.1682,0,0,0,0,0,0,0,0.1504,0.1511,0.1582,0.1565,0.1565,0.1554,0.1557,0.1609,0.1608,0.1565,0.1564,0.1573,0.1638,0.1644,0.165,0.1729,0.1675,0.1679,0.1682,0.1684,0.1801,0.1801,0,0,0,0,0,0,0.151,0.1509,0.1581,0.1583,0.1535,0.1558,0.1561,0.1577,0.1607,0.161,0.1574,0.1571,0.1636,0.1645,0.1653,0.1716,0.168,0.1685,0.1688,0.18,0.1801,0.1801,0,0,0,0,0,0,0.1508,0.1516,0.158,0.1548,0.1556,0.1561,0.158,0.1579,0.157,0.1613,0.1617,0.1565,0.1635,0.1646,0.1675,0.1719,0.1687,0.1691,0.18,0.18,0.1801,0.1849,0,0,0,0,0,0,0.1505,0.1515,0.1534,0.1549,0.1558,0.1603,0.1581,0.158,0.1581,0.1577,0.1608,0.1614,0.1635,0.1667,0.168,0.1725,0.1695,0.18,0.18,0.1801,0.1847,0.1851,0.1854,0,0,0,0,0,0.1501,0.1523,0.1535,0.1544,0.1582,0.1604,0.1608,0.1603,0.1582,0.1587,0.159,0.1613,0.1678,0.1671,0.1686,0.1734,0.18,0.18,0.1801,0.1846,0.185,0.1854,0,0,0,0,0,0,0.1478,0.1523,0.1535,0.1567,0.1588,0.16,0.1614,0.1601,0.1608,0.1607,0.162,0.1628,0.1675,0.1685,0.1677,0.1762,0.1742,0.1746,0.1772,0.1776,0.178,0.1786,0.1699,0,0,0,0,0,0.1489,0.152,0.1553,0.1578,0.1596,0.1604,0.1613,0.1612,0.162,0.1619,0.1639,0.166,0.1693,0.1713,0.1748,0.1799,0.1793,0.1834,0.1837,0.1841,0.1852,0.186,0.1866,0.1802,0.1802,0.1802,0,0,0.1493,0.1516,0.1537,0.1577,0.1597,0.1613,0.1604,0.1625,0.1633,0.1635,0.1657,0.1683,0.1706,0.1759,0.1781,0.1772,0.1852,0.1841,0.1844,0.1854,0.1861,0.1868,0.1874,0.1803,0.1802,0.1802,0,0,0.1495,0.1536,0.1559,0.1576,0.161,0.1625,0.1628,0.165,0.166,0.1695,0.1691,0.1732,0.1782,0.1809,0.1827,0.187,0.1871,0.1878,0.1911,0.1919,0.1925,0.193,0.192,0.1924,0.1879,0.1879,0.188,0,0.1503,0.1517,0.1567,0.1578,0.1583,0.1625,0.1627,0.1661,0.1683,0.1687,0.1709,0.1764,0.1813,0.1846,0.1879,0.1886,0.1872,0.1899,0.1926,0.1931,0.1935,0.1924,0.1928,0.1882,0.1882,0.1881,0.1881,0,0.1509,0.1518,0.1531,0.1563,0.1584,0.1596,0.1646,0.1671,0.1698,0.1718,0.1768,0.1832,0.1855,0.1893,0.1921,0.197,0.1942,0.1932,0.192,0.1945,0.1931,0.1934,0.1885,0.1884,0.1884,0.1883,0,0,0.1521,0.1535,0.1536,0.153,0.1567,0.1584,0.1619,0.1648,0.1656,0.173,0.1734,0.1852,0.1881,0.1903,0.1939,0.1983,0.2038,0.1986,0.1985,0.1984,0.2035,0.1913,0.1905,0.2024,0.2025,0.2026,0.201,0,0.1504,0.1499,0.1514,0.1509,0.1508,0.1545,0.1569,0.1608,0.1654,0.1684,0.1767,0.1813,0.1883,0.1915,0.1969,0.2023,0.2049,0.2042,0.2004,0.2003,0.1899,0.1905,0.1756,0.1719,0.2012,0.2013,0.2013,0,0.1484,0.1481,0.147,0.1458,0.1467,0.1489,0.1514,0.1544,0.1601,0.1637,0.1691,0.1743,0.1842,0.1895,0.1993,0.1979,0.2019,0.2059,0.2058,0.1932,0.1887,0.1742,0.1713,0.2018,0.2018,0.2017,0.2017,0,0.1438,0.1435,0.1419,0.142,0.1442,0.1455,0.1482,0.153,0.1556,0.1615,0.1641,0.1718,0.1799,0.1851,0.1977,0.1978,0.2063,0.2053,0.1964,0.1955,0.1815,0.179,0.2098,0.2098,0.2098,0.2098,0.2098,0,0.1378,0.1375,0.1408,0.1403,0.1408,0.1436,0.1456,0.1488,0.1533,0.1564,0.1631,0.1678,0.1804,0.187,0.1939,0.1964,0.2023,0.197,0.1944,0.1823,0.1801,0.2053,0.2048,0.2097,0.2097,0.2097,0.2098,0,0.1332,0.1344,0.1341,0.1371,0.1387,0.1406,0.1455,0.1465,0.1517,0.1557,0.1582,0.1677,0.1755,0.1834,0.1937,0.192,0.1948,0.1936,0.1779,0.1734,0.1836,0.1833,0.18,0.1796,0.1792,0.1789,0.1786,0,0.1306,0.1296,0.1332,0.1342,0.1368,0.1401,0.1416,0.1463,0.1477,0.156,0.1573,0.1661,0.1703,0.1764,0.1744,0.1743,0.1876,0.1602,0.1575,0.1827,0.1806,0.181,0.1813,0.1413,0.1407,0.1403,0.1399,0,0.1265,0.1293,0.13,0.1318,0.1343,0.1352,0.1386,0.1392,0.1448,0.1483,0.1544,0.158,0.1601,0.1523,0.1495,0.1494,0.1578,0.1504,0.1818,0.1499,0.1457,0.1438,0.1454,0.1359,0.1363,0.1366,0.1368,0.137,0.126,0.1261,0.1275,0.1293,0.1306,0.1304,0.1301,0.1329,0.1347,0.1368,0.1462,0.1442,0.1382,0.1235,0.12,0.1177,0.129,0.1253,0.127,0.1291,0.1236,0.1189,0.1031,0.1032,0.1034,0.1036,0.1037,0,0.1242,0.1251,0.1247,0.1253,0.1234,0.1272,0.127,0.124,0.1247,0.1238,0.1277,0.1077,0.0998,0.0985,0.0849,0.0807,0.0842,0.0812,0.0857,0.0895,0.0929,0.0861,0.0553,0.0552,0.0551,0.055,0,0,0.1238,0.1227,0.1217,0.1182,0.1191,0.1167,0.1161,0.1117,0.1073,0.0964,0.0906,0.0948,0.0908,0.069,0.0649,0.059,0.0752,0.0572,0.0956,0.1046,0.1079,0.1171,0.1105,0,0,0,0,0]},{"header":{"parameterUnit":"m.s-1","parameterCategory":2,"la1":30.2991,"la2":30.254,"lo1":-89.0895,"lo2":-89.0444,"dy":0.0017,"dx":0.0017,"nx":28,"ny":28,"refTime":"2024-05-20T03:00:00:Z","depth":"2","parameterNumber":3,"parameterNumberName":"V-component_of_CURRENTS"},"data":[0,0,0,0,0,0,0,0,0,0,0,0,0,0,0,0,0,0,0,0,0,0,0,0,0,0,0,0,0,0,0,0,0,0,0,0,0,0,0,0,0,0,0,0,0,0,0,0,0,0,0,0,0,0,0,0,0,0,0.0271,0.0271,0,0.0285,0.0285,0.0284,0.0197,0.0195,0.0193,0.0191,0.0005,0.0002,-0.0001,0,0,0,0,0,0,0,0,0,0,0,0,0,0.0155,0.0157,0.027,0.0271,0.0272,0.0285,0.0285,0.0284,0.0197,0.0195,0.0192,0.019,0.0006,0.0003,-0.0001,0,0,0,0,0,0,0,0,0,0,0,0,0,0.0186,0.0158,0.027,0.0233,0.0231,0.0285,0.0285,0.0284,0.0198,0.0194,0.0191,0.0189,0.0008,0.0003,-0.0001,0.0032,0,0,-0.0015,-0.0017,0,0,0,0,0,0,0,0,0.0184,0.019,0.0238,0.0236,0.0233,0.024,0.0176,0.0192,0.0198,0.0205,0.0191,0.0187,0.0071,0.0061,0.0066,0.0023,0.0015,-0.0016,-0.0018,-0.002,-0.0022,0,0,0,0,0,0,0,0.0182,0.0189,0.0271,0.0239,0.0236,0.0212,0.0213,0.0179,0.0147,0.0204,0.0199,0.021,0.0067,0.0071,0.0061,0.0012,-0.0015,-0.002,-0.0022,-0.0024,0.0012,0.0015,0,0,0,0,0,0,0.0195,0.0187,0.0271,0.0272,0.0206,0.0217,0.0218,0.0237,0.0152,0.0139,0.0212,0.0206,0.008,0.0066,0.0054,0.0092,-0.002,-0.0025,-0.0027,0.0008,0.0013,0.0017,0,0,0,0,0,0,0.0193,0.0203,0.027,0.0233,0.024,0.0223,0.0245,0.0239,0.0267,0.0161,0.0142,0.0249,0.0077,0.006,0.0089,0.0083,-0.0027,-0.0031,0.0004,0.001,0.0015,0.0166,0,0,0,0,0,0,0.019,0.0202,0.0231,0.0234,0.0243,0.0317,0.0248,0.0242,0.0279,0.0271,0.0187,0.0165,0.0074,0.0097,0.0085,0.0075,-0.0034,-0.0001,0.0006,0.0013,0.0156,0.0176,0.0192,0,0,0,0,0,0.0186,0.0204,0.0233,0.0243,0.028,0.032,0.0322,0.0295,0.0284,0.0307,0.0289,0.0169,0.0129,0.01,0.0083,0.0071,-0.0004,0.0004,0.0012,0.0148,0.0172,0.0192,0,0,0,0,0,0,0.0151,0.0199,0.0228,0.026,0.0309,0.0306,0.0313,0.0335,0.0344,0.0326,0.0244,0.0224,0.0239,0.0169,0.0139,0.0109,0.0031,0.0037,0.014,0.0161,0.0179,0.0114,-0.0038,0,0,0,0,0,0.0174,0.0195,0.026,0.0282,0.0315,0.0342,0.0361,0.0359,0.0365,0.0366,0.033,0.0285,0.0262,0.0228,0.0195,0.0198,0.0118,0.0176,0.0195,0.021,0.0153,0.0107,0.0114,0.0044,0.0044,0.0044,0,0,0.0159,0.019,0.0201,0.0278,0.0301,0.0332,0.0342,0.0374,0.0392,0.0343,0.0359,0.0362,0.0291,0.0289,0.0283,0.0223,0.0203,0.0221,0.0234,0.0166,0.0116,0.0122,0.0127,0.005,0.0049,0.0048,0,0,0.0118,0.0186,0.0194,0.0242,0.0306,0.0336,0.0369,0.0421,0.0438,0.0495,0.046,0.0488,0.0448,0.0398,0.0364,0.0473,0.0323,0.0459,0.0461,0.0421,0.0424,0.0426,0.0382,0.0378,0.044,0.044,0.0441,0,0.0114,0.0135,0.0203,0.0225,0.0258,0.0347,0.0372,0.0411,0.0469,0.0484,0.0502,0.0504,0.0479,0.0446,0.049,0.05,0.0452,0.0381,0.0439,0.0438,0.0437,0.0391,0.0385,0.0449,0.0448,0.0447,0.0446,0,0.0077,0.011,0.0117,0.018,0.023,0.0268,0.0349,0.0406,0.0467,0.0496,0.0541,0.0564,0.0536,0.0564,0.0554,0.0538,0.0504,0.049,0.037,0.0452,0.0401,0.0391,0.046,0.0457,0.0455,0.0453,0,0,0.0056,0.0089,0.01,0.0129,0.0219,0.0262,0.0304,0.0378,0.0407,0.0479,0.0498,0.0537,0.0566,0.0534,0.055,0.053,0.0545,0.0507,0.0501,0.0438,0.0446,0.0477,0.0469,0.054,0.0538,0.0537,0.043,0,0.0032,0.0042,0.0073,0.0111,0.0147,0.0228,0.0266,0.0331,0.0403,0.045,0.0483,0.0516,0.0547,0.0571,0.0558,0.0559,0.0518,0.0573,0.0393,0.0386,0.0383,0.0458,0.0468,0.0378,0.042,0.0418,0.0417,0,0.0014,0.0031,0.0041,0.0103,0.013,0.0159,0.0254,0.0301,0.0362,0.0412,0.0433,0.047,0.048,0.0508,0.0462,0.0497,0.046,0.045,0.0445,0.0388,0.0398,0.0295,0.0357,0.0399,0.0401,0.0402,0.0403,0,-0.0012,0.0028,0.0035,0.0056,0.0127,0.0149,0.0205,0.0278,0.034,0.0384,0.0434,0.0422,0.0473,0.0403,0.0433,0.043,0.0378,0.0361,0.0329,0.0331,0.0252,0.025,0.0269,0.027,0.027,0.027,0.027,0,-0.003,-0.0018,0.0023,0.0033,0.0085,0.0133,0.0197,0.0249,0.0319,0.0396,0.0415,0.0485,0.0455,0.0455,0.0403,0.0365,0.0343,0.0311,0.0301,0.0317,0.0322,0.0255,0.0254,0.0266,0.0267,0.0268,0.0269,0,-0.0071,-0.0058,-0.0028,0.0036,0.0066,0.0108,0.0218,0.0274,0.0333,0.0428,0.0449,0.0533,0.0552,0.0507,0.0439,0.037,0.0296,0.0272,0.0305,0.0301,0.0263,0.0272,0.0174,0.0174,0.0174,0.0174,0.0174,0,-0.011,-0.0103,-0.0021,0.0025,0.0053,0.0126,0.0194,0.0275,0.0349,0.0485,0.054,0.0596,0.0688,0.0603,0.0475,0.0338,0.0334,0.0238,0.0224,0.0251,0.025,0.026,0.0269,0.0191,0.0191,0.0191,0.0191,0,-0.0146,-0.0113,-0.0069,0.0023,0.0097,0.0184,0.0282,0.0342,0.0458,0.0552,0.0706,0.0784,0.0752,0.0676,0.0506,0.0406,0.0259,0.0236,0.0241,0.0237,0.0264,0.0266,0.0274,0.0192,0.0192,0.0192,0.0192,0.0192,-0.0153,-0.0113,-0.0036,0.0055,0.0141,0.0247,0.0324,0.0446,0.0576,0.0775,0.0838,0.0952,0.0809,0.0621,0.048,0.03,0.0286,0.0194,0.0194,0.0193,0.0238,0.0266,0.0202,0.0202,0.0202,0.0202,0.0202,0,-0.0138,-0.0078,0.0003,0.0122,0.0215,0.0252,0.0398,0.0511,0.0681,0.0851,0.1025,0.0904,0.0823,0.0657,0.0393,0.0237,0.0215,0.0194,0.0193,0.0192,0.0191,0.0236,0.0199,0.0199,0.0199,0.0199,0,0,-0.0116,-0.0036,0.0016,0.0168,0.0244,0.0368,0.0448,0.0642,0.0777,0.098,0.1034,0.112,0.0849,0.0644,0.0458,0.0338,0.03,0.0312,0.0326,0.0346,0.0347,0.0199,0.0269,0,0,0,0,0]}],[{"header":{"parameterUnit":"m.s-1","parameterCategory":2,"la1":30.2991,"la2":30.254,"lo1":-89.0895,"lo2":-89.0444,"dy":0.0017,"dx":0.0017,"nx":28,"ny":28,"refTime":"2024-05-20T03:00:00:Z","depth":"4","parameterNumber":2,"parameterNumberName":"U-component_of_CURRENTS"},"data":[0,0,0,0,0,0,0,0,0,0,0,0,0,0,0,0,0,0,0,0,0,0,0,0,0,0,0,0,0,0,0,0,0,0,0,0,0,0,0,0,0,0,0,0,0,0,0,0,0,0,0,0,0,0,0,0,0,0,0.0041,0.0041,0,0.0095,0.0096,0.0096,0.0129,0.0129,0.0129,0.0129,0.0177,0.0178,0.0179,0,0,0,0,0,0,0,0,0,0,0,0,0,0.0069,0.0068,0.0041,0.0041,0.0042,0.0095,0.0096,0.0097,0.0129,0.0129,0.0129,0.0129,0.0176,0.0178,0.0179,0,0,0,0,0,0,0,0,0,0,0,0,0,0.0086,0.0067,0.0041,0.0062,0.0064,0.0094,0.0096,0.0097,0.0129,0.0129,0.0129,0.0129,0.0176,0.0178,0.018,0.0195,0,0,0.0186,0.0187,0,0,0,0,0,0,0,0,0.0084,0.0085,0.0059,0.0061,0.0063,0.0103,0.0123,0.0129,0.0129,0.0108,0.0129,0.0129,0.0149,0.0154,0.0168,0.0198,0.02,0.0186,0.0187,0.0188,0.0189,0,0,0,0,0,0,0,0.0083,0.0083,0.0065,0.0059,0.0062,0.0104,0.0106,0.0125,0.0131,0.011,0.0111,0.0113,0.0151,0.0166,0.017,0.02,0.0186,0.0188,0.0189,0.019,0.0294,0.0295,0,0,0,0,0,0,0.0065,0.0081,0.0063,0.0066,0.007,0.0103,0.0105,0.0093,0.0131,0.0136,0.0113,0.0114,0.0163,0.0167,0.0171,0.0233,0.0188,0.019,0.0191,0.0292,0.0294,0.0296,0,0,0,0,0,0,0.0065,0.0062,0.0061,0.0074,0.0076,0.0101,0.0088,0.0094,0.0127,0.0133,0.0138,0.0142,0.0163,0.0169,0.0199,0.0233,0.0191,0.0193,0.029,0.0293,0.0295,0.0329,0,0,0,0,0,0,0.0065,0.0062,0.0056,0.0072,0.0075,0.0073,0.0088,0.0095,0.0125,0.0128,0.0159,0.0163,0.0163,0.0196,0.0201,0.0235,0.0194,0.0288,0.0291,0.0294,0.0326,0.0332,0.0338,0,0,0,0,0,0.0066,0.0055,0.0055,0.0053,0.0062,0.0073,0.0078,0.0099,0.0127,0.0132,0.0163,0.0163,0.0218,0.0198,0.0204,0.024,0.0287,0.0291,0.0294,0.0323,0.0331,0.0337,0,0,0,0,0,0,0.0081,0.0058,0.0058,0.0045,0.0054,0.0077,0.009,0.0113,0.0146,0.016,0.0176,0.0181,0.0219,0.0227,0.0205,0.0279,0.0256,0.026,0.0276,0.0284,0.0289,0.0288,0.0196,0,0,0,0,0,0.0075,0.0059,0.0051,0.0052,0.0049,0.0078,0.0092,0.0108,0.0133,0.015,0.0184,0.0217,0.0237,0.0257,0.0273,0.0315,0.0297,0.0344,0.035,0.0355,0.036,0.0354,0.0359,0.0307,0.0307,0.0307,0,0,0.0084,0.0073,0.0066,0.0054,0.0068,0.0073,0.0087,0.011,0.0137,0.0149,0.0214,0.0235,0.0251,0.0291,0.0311,0.0304,0.036,0.0359,0.0363,0.0365,0.0358,0.0363,0.0367,0.0309,0.0309,0.0308,0,0,0.0093,0.0081,0.0064,0.0067,0.0075,0.009,0.0099,0.0134,0.0164,0.021,0.0233,0.0267,0.0319,0.0333,0.0344,0.0393,0.0385,0.0421,0.0458,0.0453,0.0456,0.0459,0.0435,0.0435,0.0432,0.0432,0.0432,0,0.0105,0.0083,0.0069,0.0061,0.0073,0.0099,0.0105,0.0137,0.0191,0.0218,0.0231,0.0313,0.033,0.0368,0.04,0.0404,0.0403,0.0427,0.0458,0.0461,0.0463,0.0437,0.0438,0.0434,0.0434,0.0433,0.0433,0,0.0098,0.0087,0.0087,0.0078,0.0089,0.0105,0.0128,0.0174,0.0223,0.0251,0.031,0.0338,0.0386,0.0407,0.0426,0.0472,0.0464,0.0456,0.0434,0.047,0.0441,0.044,0.0437,0.0436,0.0435,0.0435,0,0,0.0112,0.008,0.0083,0.0077,0.0102,0.0108,0.0162,0.0198,0.0237,0.0294,0.0342,0.0397,0.0428,0.0445,0.0476,0.0491,0.0512,0.0507,0.0506,0.0471,0.0501,0.0465,0.046,0.0523,0.0523,0.0524,0.047,0,0.0116,0.0087,0.0086,0.0098,0.0089,0.013,0.0172,0.0216,0.0267,0.0323,0.0357,0.0408,0.0436,0.0478,0.0497,0.0515,0.0516,0.0527,0.0482,0.048,0.0434,0.046,0.0525,0.0469,0.0469,0.0469,0.0469,0,0.0107,0.0094,0.0079,0.0091,0.0094,0.0113,0.0182,0.0222,0.0293,0.0342,0.0398,0.0432,0.0489,0.0497,0.052,0.0537,0.0532,0.0526,0.0523,0.0477,0.0443,0.043,0.0467,0.0467,0.0468,0.0468,0.0468,0,0.0103,0.0092,0.008,0.0084,0.0102,0.0127,0.0159,0.0226,0.0273,0.036,0.0406,0.0455,0.0504,0.0503,0.0523,0.0534,0.052,0.0513,0.0455,0.0451,0.0482,0.0479,0.0502,0.0502,0.0502,0.0503,0.0503,0,0.0098,0.0091,0.0072,0.0067,0.0085,0.0108,0.0155,0.0207,0.0285,0.0337,0.0415,0.0463,0.0519,0.0527,0.0517,0.0488,0.0506,0.0462,0.044,0.0497,0.0497,0.048,0.0478,0.05,0.0501,0.0501,0.0502,0,0.0079,0.0067,0.0052,0.0063,0.0073,0.0084,0.015,0.0188,0.0272,0.0347,0.0385,0.0484,0.0507,0.0513,0.0509,0.0483,0.0445,0.042,0.0471,0.0452,0.0376,0.0377,0.0347,0.0346,0.0344,0.0343,0.0342,0,0.0051,0.0037,0.0037,0.0041,0.0044,0.0073,0.0107,0.0185,0.0238,0.0348,0.0382,0.0443,0.0496,0.0449,0.0459,0.0404,0.0398,0.0368,0.0392,0.0381,0.0363,0.0366,0.0369,0.034,0.034,0.0339,0.0339,0,0.0011,0.0012,0.0004,0.0013,0.0032,0.0061,0.0112,0.0147,0.0249,0.0319,0.0387,0.0406,0.0428,0.0429,0.0401,0.0358,0.0386,0.0354,0.0357,0.0378,0.0372,0.0356,0.036,0.0334,0.0335,0.0335,0.0336,0,-0.0016,-0.0028,-0.0031,-0.0017,0.0011,0.0043,0.0071,0.0135,0.0193,0.0319,0.0327,0.0378,0.0433,0.0402,0.0362,0.0336,0.0327,0.0307,0.0312,0.0317,0.0333,0.0323,0.0252,0,0,0,0,0,-0.0045,-0.005,-0.0054,-0.0036,-0.0003,0.0014,0.0079,0.0117,0.0206,0.0247,0.0295,0.0312,0.0312,0.0326,0.0289,0.0315,0.0305,0.0268,0.0279,0.0308,0.0313,0.0336,0,0,0,0,0,0,-0.0063,-0.0068,-0.007,-0.0048,-0.0033,0.0003,0.0038,0.0091,0.0127,0.0213,0.0216,0.0275,0.0272,0.0325,0.0279,0.0278,0.0272,0.029,0.0288,0.0305,0.031,0.0314,0.0339,0,0,0,0,0]},{"header":{"parameterUnit":"m.s-1","parameterCategory":2,"la1":30.2991,"la2":30.254,"lo1":-89.0895,"lo2":-89.0444,"dy":0.0017,"dx":0.0017,"nx":28,"ny":28,"refTime":"2024-05-20T03:00:00:Z","depth":"4","parameterNumber":3,"parameterNumberName":"V-component_of_CURRENTS"},"data":[0,0,0,0,0,0,0,0,0,0,0,0,0,0,0,0,0,0,0,0,0,0,0,0,0,0,0,0,0,0,0,0,0,0,0,0,0,0,0,0,0,0,0,0,0,0,0,0,0,0,0,0,0,0,0,0,0,0,0.0195,0.0195,0,0.0212,0.0212,0.0212,0.0244,0.0245,0.0246,0.0246,0.0253,0.0253,0.0252,0,0,0,0,0,0,0,0,0,0,0,0,0,0.0189,0.0189,0.0195,0.0195,0.0196,0.0212,0.0212,0.0212,0.0244,0.0245,0.0246,0.0246,0.0253,0.0253,0.0252,0,0,0,0,0,0,0,0,0,0,0,0,0,0.0198,0.0189,0.0195,0.0213,0.0215,0.0212,0.0212,0.0212,0.0244,0.0245,0.0246,0.0247,0.0253,0.0253,0.0252,0.0232,0,0,0.0251,0.025,0,0,0,0,0,0,0,0,0.0197,0.0198,0.021,0.0212,0.0214,0.0226,0.0212,0.0218,0.0244,0.0234,0.0246,0.0247,0.0242,0.0243,0.0245,0.0232,0.0232,0.0251,0.025,0.025,0.025,0,0,0,0,0,0,0,0.0197,0.0198,0.0202,0.021,0.0212,0.0219,0.0222,0.0214,0.0233,0.0235,0.0237,0.0237,0.0243,0.0245,0.0245,0.0232,0.0251,0.025,0.025,0.025,0.019,0.0189,0,0,0,0,0,0,0.0193,0.0197,0.0202,0.0203,0.0207,0.0219,0.0221,0.0222,0.0233,0.0236,0.0237,0.0239,0.0246,0.0246,0.0246,0.0203,0.025,0.025,0.0249,0.0191,0.019,0.0188,0,0,0,0,0,0,0.0193,0.0193,0.0201,0.02,0.0201,0.0218,0.0218,0.0222,0.0223,0.0235,0.0238,0.0235,0.0246,0.0246,0.0232,0.0205,0.0249,0.0249,0.0193,0.0191,0.0189,0.013,0,0,0,0,0,0,0.0192,0.0193,0.0194,0.02,0.0201,0.0194,0.0217,0.0221,0.0222,0.0225,0.0234,0.0236,0.0247,0.0232,0.0231,0.0205,0.0248,0.0194,0.0192,0.0189,0.0134,0.0127,0.012,0,0,0,0,0,0.0192,0.0186,0.0194,0.0195,0.0202,0.0193,0.0194,0.0209,0.0221,0.0215,0.022,0.0236,0.0216,0.0231,0.023,0.0202,0.0195,0.0192,0.019,0.0137,0.0128,0.012,0,0,0,0,0,0,0.0184,0.0189,0.0198,0.0195,0.0192,0.0198,0.02,0.0203,0.0202,0.0209,0.022,0.0221,0.0197,0.0206,0.0222,0.0178,0.0208,0.0205,0.0168,0.016,0.0153,0.0198,0.0248,0,0,0,0,0,0.0182,0.0186,0.0183,0.0184,0.0182,0.0189,0.0189,0.0194,0.0193,0.0195,0.0193,0.0192,0.0183,0.0178,0.0173,0.0148,0.0167,0.0129,0.0122,0.0117,0.0152,0.0125,0.012,0.0179,0.0179,0.0179,0,0,0.0185,0.0185,0.0191,0.0184,0.0189,0.0191,0.0192,0.0187,0.019,0.0194,0.0188,0.0168,0.0171,0.0144,0.0134,0.015,0.0107,0.0113,0.0108,0.0148,0.0122,0.0116,0.0111,0.0177,0.0177,0.0178,0,0,0.0198,0.0186,0.0201,0.0198,0.0197,0.0187,0.0182,0.0173,0.017,0.0149,0.0154,0.0121,0.0104,0.01,0.0098,0.0052,0.0072,0.0037,0.0039,0.0011,0.0006,0.0003,0.0011,0.0009,0.0033,0.0033,0.0033,0,0.0201,0.0218,0.0201,0.0215,0.0221,0.0186,0.0202,0.0183,0.0167,0.0167,0.0143,0.0111,0.009,0.0082,0.0055,0.0038,0.004,0.0067,0.0003,-0.0,-0.0003,0.0007,0.0005,0.003,0.003,0.003,0.0031,0,0.0231,0.0246,0.0248,0.0257,0.0253,0.025,0.0228,0.021,0.0182,0.0163,0.0131,0.0087,0.0081,0.0039,0.0031,-0.0001,0.0012,-0.0005,0.0026,-0.0012,-0.0,-0.0001,0.0025,0.0026,0.0027,0.0028,0,0,0.023,0.0266,0.0269,0.0288,0.0276,0.0269,0.0269,0.0254,0.0256,0.0192,0.0194,0.0123,0.0091,0.0089,0.0052,0.0009,-0.0042,-0.001,-0.001,0.0006,-0.0079,-0.0081,-0.0081,-0.0081,-0.0081,-0.0082,-0.0066,0,0.026,0.0301,0.0312,0.0337,0.0348,0.0334,0.0339,0.0319,0.028,0.0256,0.0194,0.0167,0.0113,0.0093,0.004,-0.0016,-0.0044,-0.0041,-0.0047,-0.0045,-0.0039,-0.0083,-0.0083,-0.0066,-0.0066,-0.0066,-0.0066,0,0.0282,0.0304,0.0353,0.0384,0.039,0.04,0.0402,0.0401,0.0365,0.0344,0.0304,0.0251,0.0193,0.0136,0.0049,0.0051,-0.0002,-0.0055,-0.0056,-0.0025,-0.0049,-0.0018,-0.0067,-0.0067,-0.0067,-0.0067,-0.0067,0,0.0278,0.0326,0.0366,0.0377,0.0405,0.0433,0.0438,0.0426,0.0429,0.04,0.0384,0.032,0.0274,0.0197,0.0078,0.0064,-0.0021,-0.005,-0.0086,-0.0085,-0.0058,-0.0054,-0.0094,-0.0094,-0.0094,-0.0094,-0.0094,0,0.0289,0.0317,0.037,0.0388,0.0429,0.0447,0.048,0.0485,0.0485,0.0476,0.0426,0.0391,0.0277,0.0202,0.0112,0.0015,0.0013,-0.0069,-0.0086,-0.0086,-0.0085,-0.0059,-0.0055,-0.0093,-0.0093,-0.0093,-0.0093,0,0.0284,0.032,0.0363,0.0414,0.0433,0.046,0.0513,0.0527,0.0532,0.0523,0.0516,0.044,0.034,0.0241,0.0113,0.0057,-0.0032,-0.0061,-0.0021,-0.0038,-0.0076,-0.0076,-0.0081,-0.0081,-0.0081,-0.0081,-0.0081,0,0.0291,0.0314,0.0381,0.0409,0.044,0.0485,0.0519,0.0549,0.0562,0.0533,0.0521,0.0437,0.037,0.021,0.0106,-0.0008,-0.0043,-0.0047,-0.0088,-0.0061,-0.0077,-0.0076,-0.0076,-0.0081,-0.0081,-0.0081,-0.0081,0,0.0293,0.0321,0.0358,0.0417,0.0463,0.0512,0.0557,0.056,0.0576,0.0585,0.051,0.0423,0.0316,0.0191,0.0113,0.0015,-0.0024,-0.0048,-0.0049,-0.0088,-0.0061,-0.0077,-0.0077,-0.0081,-0.0081,-0.0081,-0.0081,0,0.0298,0.032,0.0369,0.042,0.048,0.0515,0.0537,0.0545,0.0558,0.0528,0.0494,0.0383,0.0329,0.0202,0.0115,0.0039,0.0009,-0.0004,-0.0008,-0.0009,-0.0007,0.0036,0.0042,0,0,0,0,0,0.0299,0.0321,0.0365,0.0419,0.0479,0.0517,0.0555,0.0568,0.0572,0.0522,0.0511,0.0408,0.0266,0.0201,0.012,0.0107,-0.0,0.0014,-0.0017,-0.0082,-0.0082,-0.0094,0,0,0,0,0,0,0.03,0.034,0.0356,0.0412,0.0451,0.0512,0.0537,0.0535,0.0509,0.0496,0.0413,0.0406,0.0261,0.0307,0.0121,0.01,0.0075,-0.0042,-0.0043,-0.0082,-0.0082,-0.0082,-0.0094,0,0,0,0,0]}]]